Flag for United Arab Emirates Weather past 2 weeks in Sharjah, Sharjah, United Arab Emirates

Now
73 °F

Clear.


Feels Like: 76 °F
Forecast: 79 / 90 °F
Wind: 3 mph from Southeast

Location: Sharjah International Airport


UV Index: 7 (High)

Visibility: 10 mi


Pressure: 29.80 "Hg

Humidity: 61%

Dew point: 59 °F

Location of SharjahLocation

Historic Weather in Sharjah

°F

Sharjah temperature yesterday

Maximum temperature yesterday: 99 °F (at 12:00 PM)
Minimum temperature yesterday: 79 °F (at 3:00 AM)
Average temperature yesterday: 87 °F

Past Weeks' High & Low Weather Summary

 TemperatureHumidityPressure
High104 °F (Apr 16, 2:00 PM)100% (Apr 7, 6:00 AM)30.09 "Hg (Apr 7, 6:00 AM)
Low64 °F (Apr 7, 6:00 AM)5% (Apr 11, 12:00 PM)29.68 "Hg (Apr 17, 4:00 PM)
Average83 °F47%29.88 "Hg
* Reported Apr 4 4:00 AM — Apr 19 4:00 AM, Sharjah, Weather by CustomWeather, © 2014

Note: Actual official high and low records may vary slightly from our data, if they occured in-between our weather recording intervals... More about our weather records

Advertising

Historic Weather Conditions — Data for Previous 24 hours

 ConditionsComfort  
Time TempWeatherWind HumidityBarometerVisibility
4:00 AM
Apr 19
77 °FClear.3 mph54%29.80 "Hg10 mi
3:00 AM75 °FClear.3 mph61%29.80 "Hg10 mi
2:00 AM77 °FClear.2 mph61%29.80 "Hg10 mi
1:00 AM81 °FClear.2 mph58%29.83 "Hg10 mi
12:00 AM79 °FClear.No wind61%29.83 "Hg10 mi
11:00 PM
Apr 18
84 °FClear.1 mph51%29.83 "Hg10 mi
10:00 PM86 °FClear.No wind52%29.83 "Hg10 mi
9:00 PM86 °FClear.2 mph52%29.83 "Hg10 mi
8:00 PM84 °FClear.No wind62%29.80 "Hg10 mi
7:00 PM86 °FClear.3 mph59%29.80 "Hg10 mi
5:00 PM91 °FSunny.10 mph38%29.77 "Hg10 mi
4:00 PM93 °FSunny.13 mph41%29.77 "Hg10 mi
3:00 PM95 °FSunny.13 mph41%29.77 "Hg10 mi
2:00 PM95 °FPassing clouds.12 mph39%29.77 "HgN/A
1:00 PM95 °FPassing clouds.9 mph36%29.80 "HgN/A
12:00 PM99 °FSunny.2 mph25%29.80 "Hg10 mi
11:00 AM93 °FPassing clouds.3 mph28%29.80 "HgN/A
10:00 AM90 °FSunny.10 mph36%29.80 "Hg10 mi
9:00 AM88 °FPassing clouds.10 mph38%29.80 "HgN/A
8:00 AM82 °FPassing clouds.10 mph45%29.77 "HgN/A
7:00 AM81 °FSunny.8 mph48%29.77 "Hg10 mi
6:00 AM79 °FSunny.8 mph51%29.74 "Hg10 mi
5:00 AM81 °FClear.8 mph48%29.71 "Hg10 mi
Weather by CustomWeather, © 2014

See weather overview